Retour au catalogue

CZ-3C DEB

ActifGTO
NORAD 40203·DEBRIS·🇨🇳 China

Lancé Feb 24, 2012 depuis Xichang Satellite Launch Center

Loading…

TLE

PériméSource: Space-Track

Époque: Sep 2, 2026, 21:10 UTC

1 40203U 12008N   26245.88233551  .00000016  00000-0  24750-3 0  9992
2 40203  20.3531 166.9821 7128117 221.4829  53.8617  2.35061525109226

Suivez CZ-3C DEB en temps réel avec AllMySat

Download on the App Store